Location: Newark
(47.5833°N, 8.1500°E)
Time: 23:19:12
(UTC+00:00)

Tiros 1 despin weight - Pass Details

Date: 01 November 2020
Orbit: 593 x 642 km, 48.2° (Epoch: 29 November)

Event Time Altitude Azimuth Distance (km) Brightness Sun altitude
Rises 23:48:43 0° 258° (WSW) 2,872 - -56.3°
Reaches altitude 10° 23:51:02 10° 258° (WSW) 1,960 - -56.2°
Maximum altitude 23:55:32 88° 171° (S) 609 - -56.0°
Drops below altitude 10° 00:00:00 10° 80° (E) 1,938 - -55.7°
Sets 00:02:16 0° 81° (E) 2,836 - -55.6°
